Location: Akdamlar
(36.8729°N, 30.5187°E)
Time: 15:32:14
(UTC+00:00)

Lacrosse 5 rocket - Pass Details

Date: 18 September 2020
Orbit: 461 x 635 km, 57.0° (Epoch: 19 October)

Event Time Altitude Azimuth Distance (km) Brightness Sun altitude
Rises 16:30:20 0° 273° (W) 2,701 7.5 -6.8°
Reaches altitude 10° 16:33:34 10° 301° (WNW) 1,854 5.3 -7.4°
Maximum altitude 16:35:41 14° 331° (NNW) 1,666 4.3 -7.8°
Drops below altitude 10° 16:37:53 10° 2° (N) 1,912 4.2 -8.3°
Sets 16:41:18 0° 29° (NNE) 2,856 4.8 -9.0°
